Regional Weather Roundup
Issued by NWS

Home | Current Version | Previous Version | Graphics & Text | Print | Product List | Glossary Off
Versions: 1 2 3 4 5 6 7 8 9 10 11 12 13 14 15 16 17 18 19 20 21 22 23 24 25 26 27 28 29 30 31 32 33 34 35 36 37 38 39 40 41 42 43 44 45 46 47 48 49 50

000
ASUS43 KTOP 292008
RWRKS

WEATHER ROUNDUP FOR KANSAS
NATIONAL WEATHER SERVICE GOODLAND KS
300 PM CDT TUE JUL 29 2014

NOTE:  "FAIR" INDICATES FEW OR NO CLOUDS BELOW 12,000 FEET WITH NO
SIGNIFICANT WEATHER AND/OR OBSTRUCTIONS TO VISIBILITY.

KSZ001>006-013>018-027>032-041>047-292100-
NORTHWEST KANSAS

CITY           SKY/WX    TMP DP  RH WIND       PRES   REMARKS
GOODLAND       MOSUNNY   86  60  41 SE14G22   30.15F
HAYS           SUNNY     88  57  35 S10G16    30.13F
HILL CITY      CLOUDY    85  58  39 VRB3      30.13F
RUSSELL        PTSUNNY   85  58  39 SE5       30.12F
$$

KSZ061>065-074>080-084>089-292100-
SOUTHWEST KANSAS

CITY           SKY/WX    TMP DP  RH WIND       PRES   REMARKS
DODGE CITY     PTSUNNY   81  60  48 S15G25    30.16F
ELKHART          N/A     78  64  61 S14         N/A
GARDEN CITY    MOSUNNY   80  62  54 S14G20    30.15F
GREAT BEND     MOSUNNY   86  57  37 S10       30.12F
LIBERAL        CLOUDY    68  61  77 S10       30.20F
PRATT          PTSUNNY   84  57  39 SW6       30.16S
$$

KSZ066>073-081>083-090>101-292100-
SOUTHEAST KANSAS

CITY           SKY/WX    TMP DP  RH WIND       PRES   REMARKS
CHANUTE        CLOUDY    72  58  61 NE8       30.18F
COFFEYVILLE    PTSUNNY   82  61  48 VRB5      30.15F
HUTCHINSON     PTSUNNY   87  60  40 E7        30.13F
MEDICINE LODGE   N/A     87  58  37 SW14      30.12F
NEWTON         MOSUNNY   86  59  39 E3        30.18F
PARSONS        PTSUNNY   79  62  56 VRB5      30.17F
WICHITA INTL   PTSUNNY   86  60  41 E9        30.12F
WICHITA JABRA  PTSUNNY   86  61  42 CALM      30.14F
WICHITA MCCONL MOSUNNY   86  58  38 E5        30.14F
WINFIELD       PTSUNNY   88  61  40 CALM      30.14F
$$

KSZ007>012-019>026-033>040-048>060-102>105-292100-
NORTHEAST KANSAS

CITY           SKY/WX    TMP DP  RH WIND       PRES   REMARKS
CONCORDIA      MOSUNNY   79  61  53 NE9       30.17F
EMPORIA        CLOUDY    72  58  61 NE3       30.18F
LAWRENCE       PTSUNNY   82  59  45 NW7       30.15F
MANHATTAN      CLOUDY    77  58  51 VRB3      30.16F
MARYSVILLE     PTSUNNY   82  57  42 W6        30.16F
OLATHE IND     MOSUNNY   81  54  39 W7G20     30.16F
OLATHE EXE     MOSUNNY   82  55  39 VRB7      30.15F
SALINA         MOSUNNY   86  57  37 E14       30.14F
TOPEKA BILLARD MOSUNNY   83  58  42 W7        30.15F
TOPEKA FORBES  MOSUNNY   83  55  38 N5        30.15F
$$


USA.gov is the U.S. government's official web portal to all federal, state and local government web resources and services.